Погода в Дунаеве

Россия / Новгородская область     57°01′47″N   30°52′58″E
темп.,
°C
ветер,
м/с
пор.,
м/с
влажн.,
%
обл.,
%
осадки,
мм/ч
давл.,
гПа
погр.,
м
14 мая, пт
пт1400:00+8ююв310972 0.0 1011314
03:00+7ююв39977 0.0 1012261
06:00+7юв311945 0.0 1012306
09:00+11юв51179100 0.0 1012548
12:00+15ююв51165100 0.0 1012964
15:00+19ююв6105099 0.1 10102009
18:00+18ююв375733 0.0 10091529
21:00+14вюв267797 0.1 1008125
15 мая, сб
сб1500:00+11юв23955 0.0 100845
03:00+10вюв1196100 0.0 100715
06:00+11вюв2498100 0.8 1007141
09:00+12ююв1197100 2.1 100754
12:00+17з217650 0.1 1007776
15:00+18юз117534 1.9 1005734
18:00+16з128680 2.3 100597
21:00+13зюз229384 3.1 100540
16 мая, вс
вс1600:00+13юз249692 0.3 100592
03:00+11зюз249888 0.4 100687
06:00+12юз239878 0.4 1007115
09:00+13юз2398100 0.9 1008159
12:00+18з337496 0.0 1009851
15:00+21з236049 0.0 10091124
18:00+18з2487100 2.4 1009410
21:00+14з11946 2.8 101010
17 мая, пн
пн1700:00+12ю22964 0.0 101115
03:00+11ююв22975 0.0 101234
06:00+12ююв249628 0.0 101298
09:00+17ююв368161 0.0 1012410
12:00+22ююв465598 0.0 10111606
15:00+23ююв4750100 0.0 10102094
18:00+19юв3773100 0.1 1009249
21:00+14з2795100 1.2 1008185
18 мая, вт
вт1800:00+13сз1399100 10.8 1008153
03:00+13ссв1499100 14.1 1004183
06:00+14сз2399100 2.1 1004145
09:00+15ссв1298100 3.9 1003223
12:00+16зюз0197100 1.4 1003213
15:00+16з2497100 2.2 1003373
18:00+14з2698100 0.5 1003315
21:00+13зюз2499100 0.7 1004199